FW3681 Weather Reports


Display with metric or nautical units.
time (UTC)temp
F
wind
direction
speed
MPH
gust
MPH
rain 1hr
in
rain 24hr
in
rain mn
in
humidity
%
barometer
mb
20260506051400 67 219 3.0 4.0 0.00 0.00 0.00 82 1013.9
20260506051259 67 195 3.0 4.0 0.00 0.00 0.00 82 1013.9
20260506051201 67 198 2.0 3.0 0.00 0.00 0.00 82 1014.0
20260506051101 67 205 2.0 3.0 0.00 0.00 0.00 82 1014.0
20260506051005 67 205 1.0 3.0 0.00 0.00 0.00 82 1014.0
20260506050901 67 198 2.0 3.0 0.00 0.00 0.00 82 1014.0
20260506050800 67 199 1.0 3.0 0.00 0.00 0.00 82 1014.0
20260506050701 67 178 2.0 3.0 0.00 0.00 0.00 82 1014.0
20260506050602 67 184 0.0 3.0 0.00 0.00 0.00 82 1014.0
20260506050504 67 218 2.0 3.0 0.00 0.00 0.00 82 1014.0
20260506050400 67 224 1.0 3.0 0.00 0.00 0.00 82 1014.0
20260506050300 67 210 1.0 3.0 0.00 0.00 0.00 82 1014.0
20260506050200 67 219 2.0 3.0 0.00 0.00 0.00 82 1014.0
20260506045103 67 213 3.0 4.0 0.00 0.00 0.00 82 1014.3
20260506045006 67 206 0.0 4.0 0.00 0.00 0.00 82 1014.3
20260506044901 67 210 2.0 4.0 0.00 0.00 0.00 81 1014.3
20260506044802 67 207 3.0 4.0 0.00 0.00 0.00 81 1014.1
20260506044702 67 165 0.0 4.0 0.00 0.00 0.00 81 1014.1
20260506044602 67 214 1.0 3.0 0.00 0.00 0.00 81 1014.2
20260506044506 67 214 1.0 3.0 0.00 0.00 0.00 81 1014.2
20260506044401 67 206 2.0 3.0 0.00 0.00 0.00 81 1014.2
20260506044101 67 220 2.0 3.0 0.00 0.00 0.00 81 1014.2
20260506044006 67 202 2.0 3.0 0.00 0.00 0.00 81 1014.2
20260506043802 67 195 2.0 3.0 0.00 0.00 0.00 81 1014.3
20260506043702 67 194 2.0 3.0 0.00 0.00 0.00 80 1014.3
20260506043505 67 209 2.0 3.0 0.00 0.00 0.00 80 1014.3
20260506043402 67 202 1.0 3.0 0.00 0.00 0.00 80 1014.3
20260506043301 67 204 1.0 3.0 0.00 0.00 0.00 80 1014.4
20260506043202 67 174 2.0 3.0 0.00 0.00 0.00 80 1014.3
20260506043102 67 204 2.0 3.0 0.00 0.00 0.00 80 1014.5
20260506043007 67 202 2.0 3.0 0.00 0.00 0.00 80 1014.5
20260506042902 67 210 0.0 3.0 0.00 0.00 0.00 80 1014.5
20260506042802 67 208 2.0 3.0 0.00 0.00 0.00 80 1014.5
20260506042601 67 210 0.0 3.0 0.00 0.00 0.00 80 1014.5
20260506042505 67 155 2.0 3.0 0.00 0.00 0.00 80 1014.5
20260506042402 67 171 2.0 3.0 0.00 0.00 0.00 80 1014.5
20260506042305 67 191 2.0 3.0 0.00 0.00 0.00 80 1014.5
20260506042201 67 191 2.0 3.0 0.00 0.00 0.00 80 1014.6
20260506042101 67 193 2.0 3.0 0.00 0.00 0.00 80 1014.6
20260506041903 67 195 0.0 3.0 0.00 0.00 0.00 79 1014.7
20260506041603 67 193 2.0 3.0 0.00 0.00 0.00 79 1014.8
20260506041506 67 216 1.0 3.0 0.00 0.00 0.00 79 1014.8
20260506041401 68 215 2.0 3.0 0.00 0.00 0.00 79 1014.8
20260506041202 68 223 2.0 2.0 0.00 0.00 0.00 79 1014.9
20260506041103 68 197 0.0 2.0 0.00 0.00 0.00 79 1014.8
20260506041006 68 209 2.0 2.0 0.00 0.00 0.00 79 1014.8
20260506040902 68 200 1.0 2.0 0.00 0.00 0.00 79 1014.9
20260506040802 68 211 0.0 2.0 0.00 0.00 0.00 78 1014.9
20260506040702 68 208 1.0 2.0 0.00 0.00 0.00 78 1014.8
20260506040505 68 205 0.0 3.0 0.00 0.00 0.00 78 1014.9
20260506040402 68 228 1.0 3.0 0.00 0.00 0.00 78 1014.8
20260506040302 68 197 0.0 3.0 0.00 0.00 0.00 78 1014.8
20260506040202 68 215 0.0 3.0 0.00 0.00 0.00 78 1014.8
20260506040007 68 169 0.0 3.0 0.00 0.00 0.00 78 1014.8
20260506035903 68 214 0.0 3.0 0.00 0.00 0.00 78 1014.8
20260506035803 68 215 0.0 3.0 0.00 0.00 0.00 78 1014.8
20260506035703 68 224 3.0 3.0 0.00 0.00 0.00 78 1014.8
20260506035603 68 195 2.0 2.0 0.00 0.00 0.00 78 1014.7
20260506035506 68 208 0.0 2.0 0.00 0.00 0.00 78 1014.7
20260506035403 68 167 0.0 2.0 0.00 0.00 0.00 78 1014.7
20260506035103 68 185 0.0 1.0 0.00 0.00 0.00 77 1014.8
20260506035006 68 208 0.0 1.0 0.00 0.00 0.00 77 1014.8
20260506034903 68 208 0.0 1.0 0.00 0.00 0.00 77 1014.9
20260506034804 68 208 0.0 1.0 0.00 0.00 0.00 77 1014.8
20260506034603 68 219 0.0 1.0 0.00 0.00 0.00 77 1014.7
20260506034506 68 219 0.0 1.0 0.00 0.00 0.00 77 1014.7
20260506034403 68 198 0.0 1.0 0.00 0.00 0.00 77 1014.7
20260506034302 68 198 0.0 1.0 0.00 0.00 0.00 77 1014.7
20260506034202 68 198 0.0 1.0 0.00 0.00 0.00 77 1014.7
20260506034102 68 211 0.0 2.0 0.00 0.00 0.00 77 1014.8
20260506034006 68 185 0.0 2.0 0.00 0.00 0.00 77 1014.8
20260506033803 68 160 0.0 2.0 0.00 0.00 0.00 77 1014.8
20260506033704 68 160 0.0 2.0 0.00 0.00 0.00 77 1014.8
20260506033605 68 164 0.0 2.0 0.00 0.00 0.00 77 1014.8
20260506033507 69 197 0.0 2.0 0.00 0.00 0.00 77 1014.9
20260506033403 69 210 0.0 2.0 0.00 0.00 0.00 77 1014.8
20260506033304 68 165 0.0 2.0 0.00 0.00 0.00 77 1014.8
20260506033203 69 137 0.0 1.0 0.00 0.00 0.00 77 1014.8
20260506033104 69 222 0.0 1.0 0.00 0.00 0.00 77 1014.8
20260506033008 69 222 0.0 1.0 0.00 0.00 0.00 77 1014.8
20260506032903 69 222 0.0 1.0 0.00 0.00 0.00 77 1014.8
20260506032804 69 222 0.0 1.0 0.00 0.00 0.00 77 1014.7
20260506032703 69 222 0.0 1.0 0.00 0.00 0.00 76 1014.8
20260506032602 69 226 0.0 1.0 0.00 0.00 0.00 76 1014.7
20260506032507 69 226 0.0 1.0 0.00 0.00 0.00 76 1014.7
20260506032402 69 226 0.0 2.0 0.00 0.00 0.00 76 1014.6
20260506032203 69 220 0.0 2.0 0.00 0.00 0.00 76 1014.6
20260506032102 69 202 0.0 2.0 0.00 0.00 0.00 76 1014.6
20260506032007 69 207 0.0 2.0 0.00 0.00 0.00 76 1014.6
20260506031904 69 207 0.0 2.0 0.00 0.00 0.00 76 1014.7
20260506031804 69 207 0.0 2.0 0.00 0.00 0.00 76 1014.7
20260506031506 69 208 1.0 2.0 0.00 0.00 0.00 76 1014.7
20260506031403 69 162 0.0 2.0 0.00 0.00 0.00 75 1014.6
20260506031304 69 162 0.0 2.0 0.00 0.00 0.00 75 1014.6
20260506031203 69 185 0.0 2.0 0.00 0.00 0.00 75 1014.6
20260506031103 69 165 2.0 2.0 0.00 0.00 0.00 75 1014.6
20260506031007 69 191 0.0 2.0 0.00 0.00 0.00 75 1014.7
20260506030902 69 191 0.0 2.0 0.00 0.00 0.00 75 1014.7
20260506030803 69 191 0.0 2.0 0.00 0.00 0.00 75 1014.7
20260506030605 69 204 0.0 2.0 0.00 0.00 0.00 75 1014.7
20260506030402 69 220 0.0 2.0 0.00 0.00 0.00 75 1014.6
20260506030302 69 221 0.0 2.0 0.00 0.00 0.00 75 1014.6
20260506030203 69 222 0.0 2.0 0.00 0.00 0.00 75 1014.5
20260506025903 70 234 0.0 2.0 0.00 0.00 0.00 75 1014.5
20260506025804 70 217 0.0 2.0 0.00 0.00 0.00 74 1014.5
20260506025704 70 217 0.0 2.0 0.00 0.00 0.00 74 1014.5
20260506025603 70 210 0.0 2.0 0.00 0.00 0.00 74 1014.4
20260506025506 70 238 0.0 1.0 0.00 0.00 0.00 74 1014.4
20260506025404 70 238 0.0 1.0 0.00 0.00 0.00 74 1014.4
20260506025305 70 238 0.0 1.0 0.00 0.00 0.00 74 1014.3
20260506025203 70 238 0.0 1.0 0.00 0.00 0.00 74 1014.3
20260506025104 70 238 0.0 1.0 0.00 0.00 0.00 74 1014.3
20260506024903 70 238 0.0 1.0 0.00 0.00 0.00 74 1014.4
20260506024804 70 238 0.0 1.0 0.00 0.00 0.00 73 1014.4
20260506024704 70 225 1.0 1.0 0.00 0.00 0.00 73 1014.4
20260506024304 70 251 0.0 0.0 0.00 0.00 0.00 73 1014.3
20260506024203 70 251 0.0 0.0 0.00 0.00 0.00 73 1014.2
20260506024103 70 23 0.0 0.0 0.00 0.00 0.00 73 1014.3
20260506024006 70 23 0.0 0.0 0.00 0.00 0.00 73 1014.3
20260506023802 70 23 0.0 1.0 0.00 0.00 0.00 73 1014.3
20260506023605 70 23 0.0 3.0 0.00 0.00 0.00 73 1014.3
20260506023506 70 23 0.0 3.0 0.00 0.00 0.00 73 1014.3
20260506023403 70 321 0.0 3.0 0.00 0.00 0.00 72 1014.3
20260506023303 71 150 0.0 3.0 0.00 0.00 0.00 72 1014.2
20260506023202 71 150 0.0 3.0 0.00 0.00 0.00 72 1014.2
20260506023104 71 150 0.0 3.0 0.00 0.00 0.00 72 1014.3
20260506023006 71 139 0.0 3.0 0.00 0.00 0.00 72 1014.3
20260506022904 71 139 0.0 3.0 0.00 0.00 0.00 72 1014.3
20260506022803 71 52 3.0 3.0 0.00 0.00 0.00 72 1014.5
20260506022702 71 186 0.0 2.0 0.00 0.00 0.00 72 1014.4
20260506022505 71 186 0.0 2.0 0.00 0.00 0.00 72 1014.5
20260506022403 71 205 0.0 2.0 0.00 0.00 0.00 72 1014.4
20260506022306 71 205 0.0 2.0 0.00 0.00 0.00 72 1014.4
20260506022203 71 205 0.0 2.0 0.00 0.00 0.00 72 1014.4
20260506022006 71 205 0.0 2.0 0.00 0.00 0.00 72 1014.3
20260506021902 71 205 0.0 2.0 0.00 0.00 0.00 71 1014.3
20260506021705 71 249 0.0 2.0 0.00 0.00 0.00 71 1014.4
20260506021603 71 249 0.0 2.0 0.00 0.00 0.00 71 1014.3
20260506021506 71 249 0.0 2.0 0.00 0.00 0.00 71 1014.3
20260506021404 71 249 0.0 2.0 0.00 0.00 0.00 71 1014.3
20260506021303 71 249 0.0 2.0 0.00 0.00 0.00 71 1014.3
20260506021203 71 144 0.0 2.0 0.00 0.00 0.00 71 1014.3
20260506021104 71 144 0.0 2.0 0.00 0.00 0.00 71 1014.4
20260506021007 71 144 0.0 2.0 0.00 0.00 0.00 71 1014.3
20260506020804 71 333 0.0 2.0 0.00 0.00 0.00 70 1014.3
20260506020703 72 263 0.0 2.0 0.00 0.00 0.00 70 1014.3
20260506020603 72 263 0.0 2.0 0.00 0.00 0.00 70 1014.4
20260506020507 72 263 0.0 2.0 0.00 0.00 0.00 70 1014.4
20260506020404 72 330 0.0 3.0 0.00 0.00 0.00 70 1014.4
20260506020302 72 330 0.0 3.0 0.00 0.00 0.00 70 1014.3
20260506020202 72 321 0.0 3.0 0.00 0.00 0.00 70 1014.3
20260506020007 72 63 0.0 3.0 0.00 0.00 0.00 70 1014.3
20260506015803 72 63 0.0 3.0 0.00 0.00 0.00 70 1014.4
20260506015702 72 63 0.0 3.0 0.00 0.00 0.00 69 1014.3
20260506015602 72 63 0.0 3.0 0.00 0.00 0.00 70 1014.3
20260506015401 72 17 0.0 2.0 0.00 0.00 0.00 69 1014.4
20260506015305 72 17 0.0 2.0 0.00 0.00 0.00 69 1014.4
20260506015203 72 17 0.0 4.0 0.00 0.00 0.00 69 1014.3
20260506015102 72 210 0.0 4.0 0.00 0.00 0.00 69 1014.3
20260506015006 72 210 0.0 4.0 0.00 0.00 0.00 69 1014.3
20260506014702 72 33 0.0 4.0 0.00 0.00 0.00 68 1014.3
20260506014602 72 232 0.0 4.0 0.00 0.00 0.00 68 1014.4
20260506014506 72 277 0.0 4.0 0.00 0.00 0.00 68 1014.4
20260506014401 72 277 0.0 4.0 0.00 0.00 0.00 68 1014.3
20260506014302 72 333 0.0 4.0 0.00 0.00 0.00 68 1014.3
20260506014202 72 34 0.0 3.0 0.00 0.00 0.00 68 1014.4
20260506014102 72 311 0.0 3.0 0.00 0.00 0.00 68 1014.2
20260506013902 73 310 0.0 3.0 0.00 0.00 0.00 68 1014.2
20260506013602 73 310 0.0 3.0 0.00 0.00 0.00 67 1014.1
20260506013506 73 26 0.0 3.0 0.00 0.00 0.00 67 1014.1
20260506013402 73 356 0.0 3.0 0.00 0.00 0.00 67 1014.1
20260506013301 73 281 0.0 3.0 0.00 0.00 0.00 67 1014.1
20260506013102 73 281 0.0 3.0 0.00 0.00 0.00 67 1014.1
20260506012902 73 50 0.0 3.0 0.00 0.00 0.00 67 1014.1
20260506012802 73 293 0.0 3.0 0.00 0.00 0.00 67 1014.1
20260506012701 73 293 0.0 3.0 0.00 0.00 0.00 67 1014.2
20260506012602 73 23 1.0 1.0 0.00 0.00 0.00 67 1014.2
20260506012504 73 316 0.0 0.0 0.00 0.00 0.00 66 1014.1
20260506012401 73 324 0.0 0.0 0.00 0.00 0.00 66 1014.1
20260506012307 73 324 0.0 0.0 0.00 0.00 0.00 66 1014.1
20260506012203 73 324 0.0 1.0 0.00 0.00 0.00 66 1014.1
20260506012101 73 41 0.0 2.0 0.00 0.00 0.00 66 1014.1
20260506012005 73 41 0.0 2.0 0.00 0.00 0.00 66 1014.1
20260506011901 73 13 0.0 2.0 0.00 0.00 0.00 66 1014.1
20260506011801 73 13 0.0 2.0 0.00 0.00 0.00 66 1014.0
20260506011702 73 13 0.0 2.0 0.00 0.00 0.00 65 1014.1
20260506011601 73 13 0.0 2.0 0.00 0.00 0.00 65 1014.0
20260506011505 73 13 0.0 2.0 0.00 0.00 0.00 65 1014.0
20260506011401 73 330 0.0 2.0 0.00 0.00 0.00 65 1014.0
20260506011301 73 312 0.0 2.0 0.00 0.00 0.00 65 1014.0
20260506011201 73 55 0.0 2.0 0.00 0.00 0.00 65 1013.9
20260506011102 73 40 0.0 2.0 0.00 0.00 0.00 65 1013.9
20260506011005 73 40 0.0 2.0 0.00 0.00 0.00 65 1013.9
20260506010803 74 45 2.0 2.0 0.00 0.00 0.00 65 1013.9
20260506010702 74 309 0.0 1.0 0.00 0.00 0.00 65 1013.8
20260506010601 74 309 0.0 2.0 0.00 0.00 0.00 64 1013.8
20260506010506 74 309 0.0 4.0 0.00 0.00 0.00 64 1013.8
20260506010402 74 340 1.0 4.0 0.00 0.00 0.00 64 1013.8
20260506010302 74 22 0.0 4.0 0.00 0.00 0.00 64 1013.7
20260506010202 74 22 0.0 4.0 0.00 0.00 0.00 64 1013.7
20260506010008 74 304 0.0 4.0 0.00 0.00 0.00 64 1013.7
20260506005702 74 316 0.0 4.0 0.00 0.00 0.00 63 1013.5
20260506005602 74 289 0.0 4.0 0.00 0.00 0.00 63 1013.6
20260506005505 74 67 2.0 4.0 0.00 0.00 0.00 63 1013.6
20260506005401 74 309 0.0 4.0 0.00 0.00 0.00 62 1013.6
20260506005305 74 360 0.0 4.0 0.00 0.00 0.00 62 1013.6
20260506005202 74 319 0.0 4.0 0.00 0.00 0.00 62 1013.6
20260506005102 74 311 0.0 4.0 0.00 0.00 0.00 62 1013.5
20260506005006 74 29 3.0 4.0 0.00 0.00 0.00 62 1013.5
20260506004802 74 345 0.0 3.0 0.00 0.00 0.00 62 1013.5
20260506004702 74 346 0.0 3.0 0.00 0.00 0.00 62 1013.6
20260506004602 75 307 0.0 3.0 0.00 0.00 0.00 62 1013.7
20260506004505 75 349 0.0 5.0 0.00 0.00 0.00 62 1013.7
20260506004402 75 307 0.0 5.0 0.00 0.00 0.00 61 1013.7
20260506004302 75 1 0.0 5.0 0.00 0.00 0.00 61 1013.6
20260506004006 75 335 0.0 5.0 0.00 0.00 0.00 61 1013.7
20260506003901 75 19 0.0 5.0 0.00 0.00 0.00 61 1013.7
20260506003803 75 316 0.0 5.0 0.00 0.00 0.00 61 1013.7
20260506003703 75 342 1.0 5.0 0.00 0.00 0.00 61 1013.7
20260506003602 75 328 4.0 5.0 0.00 0.00 0.00 61 1013.8
20260506003505 75 18 0.0 4.0 0.00 0.00 0.00 61 1013.8
20260506003302 75 340 0.0 5.0 0.00 0.00 0.00 61 1013.7
20260506003202 75 321 2.0 5.0 0.00 0.00 0.00 60 1013.8
20260506003102 75 319 0.0 5.0 0.00 0.00 0.00 60 1013.7
20260506003006 75 324 0.0 5.0 0.00 0.00 0.00 60 1013.7
20260506002901 75 337 2.0 5.0 0.00 0.00 0.00 60 1013.7
20260506002701 75 290 0.0 5.0 0.00 0.00 0.00 60 1013.7
20260506002603 76 302 0.0 5.0 0.00 0.00 0.00 60 1013.7
20260506002506 76 62 1.0 4.0 0.00 0.00 0.00 61 1013.7
20260506002401 76 323 2.0 4.0 0.00 0.00 0.00 60 1013.7
20260506002305 76 340 2.0 6.0 0.00 0.00 0.00 60 1013.6
20260506002202 76 330 0.0 6.0 0.00 0.00 0.00 59 1013.6
20260506002102 76 6 1.0 6.0 0.00 0.00 0.00 60 1013.5
20260506002006 76 316 0.0 6.0 0.00 0.00 0.00 60 1013.5
20260506001902 76 307 1.0 6.0 0.00 0.00 0.00 59 1013.5
20260506001801 76 20 0.0 6.0 0.00 0.00 0.00 59 1013.5
20260506001701 76 4 2.0 6.0 0.00 0.00 0.00 59 1013.4
20260506001602 76 319 2.0 6.0 0.00 0.00 0.00 59 1013.4
20260506001402 76 278 1.0 6.0 0.00 0.00 0.00 59 1013.4
20260506001303 76 46 0.0 6.0 0.00 0.00 0.00 59 1013.3
20260506001202 76 323 1.0 6.0 0.00 0.00 0.00 59 1013.4
20260506001102 76 276 1.0 6.0 0.00 0.00 0.00 59 1013.4
20260506001006 76 326 2.0 6.0 0.00 0.00 0.00 59 1013.4
20260506000902 76 326 2.0 6.0 0.00 0.00 0.00 59 1013.5
20260506000802 76 273 0.0 6.0 0.00 0.00 0.00 59 1013.4
20260506000703 76 347 3.0 6.0 0.00 0.00 0.00 59 1013.5
20260506000402 76 316 0.0 3.0 0.00 0.00 0.00 59 1013.4
20260506000302 76 314 1.0 3.0 0.00 0.00 0.00 59 1013.4
20260506000204 76 321 2.0 3.0 0.00 0.00 0.00 58 1013.4
20260505235903 76 323 3.0 3.0 0.00 0.00 0.00 58 1013.3
20260505235803 76 345 1.0 3.0 0.00 0.00 0.00 58 1013.3
20260505235703 77 323 2.0 3.0 0.00 0.00 0.00 58 1013.3
20260505235603 77 324 2.0 4.0 0.00 0.00 0.00 58 1013.3
20260505235506 77 295 0.0 4.0 0.00 0.00 0.00 57 1013.3
20260505235402 77 350 2.0 4.0 0.00 0.00 0.00 57 1013.2
20260505235305 77 300 2.0 4.0 0.00 0.00 0.00 57 1013.1
20260505235202 77 296 2.0 4.0 0.00 0.00 0.00 56 1013.1
20260505235103 77 300 2.0 4.0 0.00 0.00 0.00 56 1013.1
20260505235007 77 300 0.0 4.0 0.00 0.00 0.00 56 1013.1
20260505234903 77 286 1.0 4.0 0.00 0.00 0.00 56 1013.0
20260505234803 77 354 1.0 4.0 0.00 0.00 0.00 56 1013.0
20260505234703 77 316 2.0 3.0 0.00 0.00 0.00 56 1013.0
20260505234602 77 255 2.0 3.0 0.00 0.00 0.00 56 1013.0
20260505234506 77 360 2.0 3.0 0.00 0.00 0.00 56 1013.0
20260505234403 77 338 2.0 3.0 0.00 0.00 0.00 56 1013.0
20260505234302 77 314 0.0 3.0 0.00 0.00 0.00 56 1013.0
20260505234103 78 331 0.0 3.0 0.00 0.00 0.00 56 1012.9
20260505234008 78 335 2.0 3.0 0.00 0.00 0.00 56 1012.9
20260505233804 78 13 2.0 3.0 0.00 0.00 0.00 56 1013.0
20260505233703 78 308 2.0 3.0 0.00 0.00 0.00 56 1013.0
20260505233603 78 359 2.0 5.0 0.00 0.00 0.00 56 1013.0
20260505233505 78 324 0.0 5.0 0.00 0.00 0.00 56 1013.0
20260505233403 78 333 2.0 5.0 0.00 0.00 0.00 55 1013.0
20260505233203 78 322 2.0 5.0 0.00 0.00 0.00 55 1013.1
20260505233102 78 297 2.0 5.0 0.00 0.00 0.00 55 1013.2
20260505233007 78 264 3.0 5.0 0.00 0.00 0.00 55 1013.2
20260505232903 78 286 1.0 5.0 0.00 0.00 0.00 54 1013.2
20260505232703 78 326 1.0 5.0 0.00 0.00 0.00 55 1013.2
20260505232506 78 316 1.0 5.0 0.00 0.00 0.00 54 1013.2
20260505232403 78 283 0.0 5.0 0.00 0.00 0.00 54 1013.3
20260505232305 78 270 2.0 5.0 0.00 0.00 0.00 54 1013.3
20260505232204 79 347 2.0 4.0 0.00 0.00 0.00 54 1013.3
20260505232104 79 328 3.0 4.0 0.00 0.00 0.00 54 1013.4
20260505232006 79 276 3.0 4.0 0.00 0.00 0.00 54 1013.3
20260505231903 79 321 0.0 4.0 0.00 0.00 0.00 54 1013.4
20260505231804 79 302 3.0 4.0 0.00 0.00 0.00 54 1013.3
20260505231703 79 287 2.0 4.0 0.00 0.00 0.00 54 1013.3
20260505231603 79 270 2.0 4.0 0.00 0.00 0.00 53 1013.3
20260505231506 79 314 0.0 4.0 0.00 0.00 0.00 53 1013.3
20260505231304 79 293 0.0 5.0 0.00 0.00 0.00 53 1013.3
20260505231204 80 268 3.0 5.0 0.00 0.00 0.00 53 1013.3
20260505231102 80 351 0.0 5.0 0.00 0.00 0.00 52 1013.3
20260505231006 80 266 1.0 5.0 0.00 0.00 0.00 52 1013.3
20260505230903 80 266 2.0 5.0 0.00 0.00 0.00 52 1013.3
20260505230803 80 316 0.0 5.0 0.00 0.00 0.00 52 1013.2
20260505230702 80 293 2.0 5.0 0.00 0.00 0.00 52 1013.2
20260505230603 80 274 3.0 5.0 0.00 0.00 0.00 51 1013.2
20260505230506 80 269 3.0 5.0 0.00 0.00 0.00 52 1013.2
20260505230404 80 304 3.0 5.0 0.00 0.00 0.00 52 1013.1
20260505230303 80 331 3.0 5.0 0.00 0.00 0.00 53 1013.1
20260505230203 80 305 2.0 4.0 0.00 0.00 0.00 52 1013.1
20260505230008 80 335 1.0 5.0 0.00 0.00 0.00 52 1013.1
20260505225902 80 288 3.0 5.0 0.00 0.00 0.00 52 1013.0
20260505225803 80 19 3.0 7.0 0.00 0.00 0.00 52 1013.1
20260505225602 80 314 3.0 7.0 0.00 0.00 0.00 52 1013.1
20260505225506 80 283 2.0 7.0 0.00 0.00 0.00 52 1013.1
20260505225402 80 319 4.0 7.0 0.00 0.00 0.00 51 1013.1
20260505225305 80 310 4.0 7.0 0.00 0.00 0.00 52 1013.1
20260505225202 80 321 4.0 7.0 0.00 0.00 0.00 51 1013.2
20260505225102 80 328 3.0 7.0 0.00 0.00 0.00 51 1013.1
20260505225006 80 304 1.0 7.0 0.00 0.00 0.00 51 1013.1
20260505224902 80 307 4.0 7.0 0.00 0.00 0.00 51 1013.2
20260505224801 80 329 1.0 6.0 0.00 0.00 0.00 51 1013.1
20260505224603 80 303 2.0 6.0 0.00 0.00 0.00 51 1013.2
20260505224506 80 303 3.0 6.0 0.00 0.00 0.00 51 1013.2
20260505224403 80 12 3.0 5.0 0.00 0.00 0.00 51 1013.2
20260505224302 80 285 5.0 5.0 0.00 0.00 0.00 52 1013.2
20260505224203 80 330 2.0 5.0 0.00 0.00 0.00 51 1013.2
20260505224102 80 294 2.0 5.0 0.00 0.00 0.00 50 1013.1
20260505224006 80 284 0.0 5.0 0.00 0.00 0.00 51 1013.1
20260505223902 80 286 2.0 5.0 0.00 0.00 0.00 51 1013.1
20260505223803 80 283 0.0 5.0 0.00 0.00 0.00 51 1013.2
20260505223603 80 272 4.0 5.0 0.00 0.00 0.00 52 1013.2
20260505223505 80 302 3.0 5.0 0.00 0.00 0.00 51 1013.2
20260505223303 80 304 3.0 5.0 0.00 0.00 0.00 51 1013.1
20260505223203 80 273 3.0 6.0 0.00 0.00 0.00 50 1013.1
20260505223006 80 334 2.0 6.0 0.00 0.00 0.00 51 1013.1
20260505222904 80 311 1.0 6.0 0.00 0.00 0.00 51 1013.2
20260505222803 80 300 3.0 6.0 0.00 0.00 0.00 51 1013.1
20260505222703 80 284 3.0 6.0 0.00 0.00 0.00 51 1013.2
20260505222603 80 307 2.0 6.0 0.00 0.00 0.00 51 1013.1
20260505222506 80 323 3.0 6.0 0.00 0.00 0.00 51 1013.1
20260505222402 80 302 3.0 6.0 0.00 0.00 0.00 50 1013.2
20260505222305 80 304 5.0 6.0 0.00 0.00 0.00 51 1013.1
20260505222203 80 219 0.0 6.0 0.00 0.00 0.00 50 1013.1
20260505222104 80 326 5.0 6.0 0.00 0.00 0.00 50 1013.1
20260505221902 81 322 3.0 5.0 0.00 0.00 0.00 51 1013.2
20260505221704 81 296 3.0 5.0 0.00 0.00 0.00 50 1013.1
20260505221603 81 299 0.0 5.0 0.00 0.00 0.00 50 1013.1
20260505221505 81 86 2.0 5.0 0.00 0.00 0.00 50 1013.1
20260505221402 81 293 0.0 5.0 0.00 0.00 0.00 51 1013.0
20260505221303 81 347 1.0 5.0 0.00 0.00 0.00 51 1013.0
20260505221203 81 268 3.0 5.0 0.00 0.00 0.00 51 1013.0
20260505221103 81 359 0.0 5.0 0.00 0.00 0.00 52 1013.0
20260505221006 81 313 2.0 5.0 0.00 0.00 0.00 51 1013.0
20260505220902 81 326 2.0 5.0 0.00 0.00 0.00 52 1012.9
20260505220803 81 153 0.0 4.0 0.00 0.00 0.00 51 1012.9
20260505220705 81 281 1.0 4.0 0.00 0.00 0.00 51 1013.0
20260505220604 81 309 1.0 4.0 0.00 0.00 0.00 50 1012.9
20260505220505 81 254 0.0 4.0 0.00 0.00 0.00 51 1012.8
20260505220402 81 135 0.0 4.0 0.00 0.00 0.00 50 1012.8
20260505220304 81 350 1.0 4.0 0.00 0.00 0.00 51 1012.8
20260505220203 81 253 1.0 4.0 0.00 0.00 0.00 51 1012.8
20260505220008 81 296 2.0 4.0 0.00 0.00 0.00 52 1012.9
20260505215901 81 227 2.0 4.0 0.00 0.00 0.00 52 1012.9
20260505215802 80 313 0.0 5.0 0.00 0.00 0.00 51 1012.8
20260505215701 80 285 0.0 5.0 0.00 0.00 0.00 52 1012.9
20260505215402 81 287 1.0 5.0 0.00 0.00 0.00 51 1013.0
20260505215305 81 326 1.0 5.0 0.00 0.00 0.00 51 1013.0
20260505215202 81 236 4.0 5.0 0.00 0.00 0.00 51 1012.9
20260505215006 81 15 0.0 5.0 0.00 0.00 0.00 51 1012.9
20260505214902 81 263 2.0 5.0 0.00 0.00 0.00 51 1012.9
20260505214802 81 287 2.0 5.0 0.00 0.00 0.00 51 1013.0
20260505214701 81 39 2.0 5.0 0.00 0.00 0.00 52 1013.0
20260505214601 81 254 3.0 4.0 0.00 0.00 0.00 51 1013.0
20260505214401 81 274 3.0 5.0 0.00 0.00 0.00 51 1013.0
20260505214301 81 326 3.0 5.0 0.00 0.00 0.00 50 1013.1
20260505214201 82 270 1.0 5.0 0.00 0.00 0.00 52 1013.1
20260505214101 81 289 1.0 5.0 0.00 0.00 0.00 51 1013.2
20260505213902 81 262 0.0 5.0 0.00 0.00 0.00 51 1013.2
20260505213801 81 245 1.0 5.0 0.00 0.00 0.00 51 1013.2
20260505213701 81 302 0.0 5.0 0.00 0.00 0.00 51 1013.1
20260505213601 81 359 2.0 5.0 0.00 0.00 0.00 51 1013.2
20260505213505 81 243 1.0 5.0 0.00 0.00 0.00 51 1013.0
20260505213402 81 150 2.0 5.0 0.00 0.00 0.00 51 1013.0
20260505213304 81 153 3.0 5.0 0.00 0.00 0.00 51 1013.1
20260505213202 81 172 3.0 5.0 0.00 0.00 0.00 50 1013.0
20260505212902 81 239 0.0 4.0 0.00 0.00 0.00 50 1013.1
20260505212802 81 307 0.0 5.0 0.00 0.00 0.00 50 1013.0
20260505212701 81 360 0.0 5.0 0.00 0.00 0.00 49 1013.1
20260505212602 82 321 0.0 5.0 0.00 0.00 0.00 49 1013.1
20260505212401 82 247 0.0 5.0 0.00 0.00 0.00 49 1013.1
20260505212301 82 91 1.0 5.0 0.00 0.00 0.00 49 1013.1
20260505212101 82 221 0.0 5.0 0.00 0.00 0.00 48 1013.0
20260505212005 82 313 1.0 5.0 0.00 0.00 0.00 49 1013.0
20260505211901 82 324 0.0 7.0 0.00 0.00 0.00 49 1013.1
20260505211802 82 334 2.0 7.0 0.00 0.00 0.00 49 1013.2
20260505211702 82 274 0.0 7.0 0.00 0.00 0.00 49 1013.1
20260505211602 82 244 0.0 7.0 0.00 0.00 0.00 49 1013.1
20260505211506 82 250 0.0 7.0 0.00 0.00 0.00 49 1013.1
20260505211401 82 214 0.0 7.0 0.00 0.00 0.00 50 1013.2
20260505211302 82 34 4.0 7.0 0.00 0.00 0.00 50 1013.2
20260505211101 81 240 2.0 7.0 0.00 0.00 0.00 50 1013.2
20260505211005 81 278 6.0 6.0 0.00 0.00 0.00 49 1013.2
20260505210701 82 231 3.0 5.0 0.00 0.00 0.00 49 1013.2
20260505210602 82 3 3.0 5.0 0.00 0.00 0.00 48 1013.2
20260505210506 82 317 0.0 5.0 0.00 0.00 0.00 48 1013.2
20260505210401 82 314 3.0 5.0 0.00 0.00 0.00 48 1013.2
20260505210303 82 176 3.0 5.0 0.00 0.00 0.00 48 1013.2
20260505210201 82 306 3.0 5.0 0.00 0.00 0.00 48 1013.2
20260505210008 82 148 3.0 5.0 0.00 0.00 0.00 47 1013.2
20260505205901 82 270 2.0 5.0 0.00 0.00 0.00 47 1013.2
20260505205802 82 15 3.0 5.0 0.00 0.00 0.00 47 1013.3
20260505205703 82 32 3.0 5.0 0.00 0.00 0.00 47 1013.3
20260505205603 82 153 2.0 5.0 0.00 0.00 0.00 48 1013.2
20260505205505 82 316 1.0 5.0 0.00 0.00 0.00 47 1013.2
20260505205305 82 217 2.0 6.0 0.00 0.00 0.00 48 1013.3
20260505205201 82 290 3.0 6.0 0.00 0.00 0.00 47 1013.3
20260505205102 82 235 0.0 6.0 0.00 0.00 0.00 48 1013.3
20260505205006 82 276 0.0 6.0 0.00 0.00 0.00 47 1013.3
20260505204901 82 243 0.0 6.0 0.00 0.00 0.00 46 1013.3
20260505204802 82 103 2.0 6.0 0.00 0.00 0.00 47 1013.4
20260505204602 82 225 1.0 6.0 0.00 0.00 0.00 48 1013.4
20260505204505 82 244 3.0 6.0 0.00 0.00 0.00 48 1013.4
20260505204402 82 347 1.0 6.0 0.00 0.00 0.00 49 1013.4
20260505204302 82 281 1.0 5.0 0.00 0.00 0.00 48 1013.4
20260505204201 82 175 2.0 6.0 0.00 0.00 0.00 48 1013.5
20260505204101 82 218 2.0 6.0 0.00 0.00 0.00 47 1013.4
20260505204006 82 19 0.0 6.0 0.00 0.00 0.00 47 1013.4
20260505203901 82 46 0.0 6.0 0.00 0.00 0.00 47 1013.5
20260505203801 82 158 2.0 6.0 0.00 0.00 0.00 47 1013.5
20260505203601 83 272 2.0 6.0 0.00 0.00 0.00 48 1013.6
20260505203401 82 146 3.0 6.0 0.00 0.00 0.00 49 1013.5
20260505203303 82 134 1.0 6.0 0.00 0.00 0.00 48 1013.5
20260505203202 82 314 2.0 4.0 0.00 0.00 0.00 49 1013.5
20260505203101 82 219 2.0 5.0 0.00 0.00 0.00 49 1013.5
20260505203007 82 329 1.0 5.0 0.00 0.00 0.00 49 1013.5
20260505202902 82 124 0.0 5.0 0.00 0.00 0.00 48 1013.6
20260505202801 82 359 3.0 5.0 0.00 0.00 0.00 48 1013.6
20260505202702 82 339 1.0 5.0 0.00 0.00 0.00 48 1013.6
20260505202601 82 293 0.0 5.0 0.00 0.00 0.00 47 1013.6
20260505202401 83 264 4.0 5.0 0.00 0.00 0.00 47 1013.6
20260505202302 83 291 2.0 5.0 0.00 0.00 0.00 49 1013.6
20260505202203 83 314 3.0 5.0 0.00 0.00 0.00 49 1013.6
20260505202102 83 305 2.0 5.0 0.00 0.00 0.00 48 1013.6
20260505202006 83 280 3.0 5.0 0.00 0.00 0.00 48 1013.6
20260505201903 83 10 3.0 5.0 0.00 0.00 0.00 48 1013.6
20260505201802 82 240 0.0 5.0 0.00 0.00 0.00 48 1013.7
20260505201506 83 300 0.0 5.0 0.00 0.00 0.00 48 1013.7
20260505201401 83 27 2.0 5.0 0.00 0.00 0.00 48 1013.7
20260505201301 83 200 2.0 5.0 0.00 0.00 0.00 49 1013.7
20260505201102 82 193 0.0 5.0 0.00 0.00 0.00 48 1013.7
20260505201006 82 284 3.0 5.0 0.00 0.00 0.00 48 1013.8
20260505200900 82 288 3.0 5.0 0.00 0.00 0.00 48 1013.8
20260505200802 82 44 0.0 5.0 0.00 0.00 0.00 49 1013.8
20260505200702 82 233 0.0 5.0 0.00 0.00 0.00 51 1013.7
20260505200602 81 136 3.0 5.0 0.00 0.00 0.00 52 1013.8
20260505200506 80 269 2.0 5.0 0.00 0.00 0.00 50 1013.9
20260505200402 80 17 2.0 5.0 0.00 0.00 0.00 49 1013.9
20260505200303 81 225 2.0 5.0 0.00 0.00 0.00 49 1013.9
20260505200202 81 240 0.0 5.0 0.00 0.00 0.00 49 1013.9
20260505200008 82 34 0.0 5.0 0.00 0.00 0.00 47 1013.9
20260505195902 82 334 1.0 5.0 0.00 0.00 0.00 46 1014.0
20260505195803 83 50 2.0 5.0 0.00 0.00 0.00 47 1014.0
20260505195703 83 111 1.0 4.0 0.00 0.00 0.00 47 1014.0
20260505195603 83 303 3.0 4.0 0.00 0.00 0.00 47 1013.9
20260505195506 83 170 3.0 4.0 0.00 0.00 0.00 47 1013.9
20260505195304 83 66 0.0 5.0 0.00 0.00 0.00 47 1014.0
20260505195203 83 240 0.0 5.0 0.00 0.00 0.00 48 1014.0
20260505195007 82 324 0.0 5.0 0.00 0.00 0.00 47 1013.9
20260505194803 82 355 1.0 5.0 0.00 0.00 0.00 48 1013.9
20260505194703 82 25 2.0 5.0 0.00 0.00 0.00 47 1014.0
20260505194403 82 320 0.0 5.0 0.00 0.00 0.00 48 1013.9
20260505194303 82 349 0.0 5.0 0.00 0.00 0.00 47 1014.1
20260505194204 81 224 2.0 5.0 0.00 0.00 0.00 48 1014.1
20260505194007 81 8 0.0 5.0 0.00 0.00 0.00 50 1014.1
20260505193902 81 309 3.0 5.0 0.00 0.00 0.00 49 1014.0
20260505193803 82 292 2.0 5.0 0.00 0.00 0.00 48 1014.1
20260505193703 82 286 2.0 6.0 0.00 0.00 0.00 48 1014.1
20260505193506 82 325 1.0 6.0 0.00 0.00 0.00 47 1014.0
20260505193402 82 3 4.0 6.0 0.00 0.00 0.00 47 1014.0
20260505193303 82 326 3.0 6.0 0.00 0.00 0.00 48 1014.0
20260505193104 82 321 3.0 7.0 0.00 0.00 0.00 47 1014.1
20260505193007 82 305 3.0 7.0 0.00 0.00 0.00 49 1014.1
20260505192902 82 289 4.0 7.0 0.00 0.00 0.00 47 1014.2
20260505192803 82 302 4.0 7.0 0.00 0.00 0.00 48 1014.2
20260505192702 82 308 0.0 7.0 0.00 0.00 0.00 46 1014.3
20260505192602 82 17 4.0 7.0 0.00 0.00 0.00 47 1014.3
20260505192506 82 269 2.0 7.0 0.00 0.00 0.00 46 1014.3
20260505192403 82 324 1.0 7.0 0.00 0.00 0.00 45 1014.3
20260505192305 82 240 4.0 7.0 0.00 0.00 0.00 47 1014.4
20260505192202 83 195 2.0 4.0 0.00 0.00 0.00 47 1014.3
20260505192006 82 267 2.0 4.0 0.00 0.00 0.00 48 1014.5
20260505191801 82 322 0.0 5.0 0.00 0.00 0.00 48 1014.5
20260505191506 81 287 1.0 5.0 0.00 0.00 0.00 48 1014.5
20260505191403 81 343 3.0 5.0 0.00 0.00 0.00 48 1014.6
20260505191303 81 253 3.0 5.0 0.00 0.00 0.00 48 1014.6
20260505191203 81 135 0.0 5.0 0.00 0.00 0.00 47 1014.6
20260505190902 82 284 3.0 5.0 0.00 0.00 0.00 50 1014.7
20260505190703 81 134 0.0 5.0 0.00 0.00 0.00 50 1014.7
20260505190506 81 165 1.0 5.0 0.00 0.00 0.00 49 1014.8
20260505190402 81 316 0.0 5.0 0.00 0.00 0.00 49 1014.7
20260505190303 81 257 2.0 7.0 0.00 0.00 0.00 50 1014.7
20260505190203 81 230 2.0 7.0 0.00 0.00 0.00 51 1014.7
20260505190008 80 218 2.0 7.0 0.00 0.00 0.00 50 1014.8
20260505185801 79 284 1.0 7.0 0.00 0.00 0.00 51 1014.8
20260505185601 80 237 0.0 7.0 0.00 0.00 0.00 50 1014.8
20260505185506 80 315 5.0 7.0 0.00 0.00 0.00 50 1014.8
20260505185401 81 212 4.0 5.0 0.00 0.00 0.00 51 1014.9
20260505185304 81 277 2.0 5.0 0.00 0.00 0.00 49 1014.8
20260505185201 81 257 0.0 5.0 0.00 0.00 0.00 52 1014.8
20260505185102 80 140 4.0 5.0 0.00 0.00 0.00 52 1014.8
20260505185005 80 158 2.0 5.0 0.00 0.00 0.00 51 1014.8
20260505184903 80 309 2.0 5.0 0.00 0.00 0.00 50 1014.8
20260505184801 80 327 3.0 5.0 0.00 0.00 0.00 50 1014.8
20260505184702 80 143 0.0 6.0 0.00 0.00 0.00 50 1014.9
20260505184601 80 340 0.0 6.0 0.00 0.00 0.00 50 1014.9
20260505184506 80 165 0.0 6.0 0.00 0.00 0.00 49 1014.9
20260505184402 80 298 0.0 6.0 0.00 0.00 0.00 49 1015.0
20260505184301 80 231 0.0 6.0 0.00 0.00 0.00 50 1015.0
20260505184201 80 255 1.0 6.0 0.00 0.00 0.00 49 1015.0
20260505184101 80 277 3.0 6.0 0.00 0.00 0.00 49 1015.0
20260505184006 80 303 3.0 6.0 0.00 0.00 0.00 48 1015.0
20260505183903 80 304 2.0 6.0 0.00 0.00 0.00 48 1015.0
20260505183802 81 299 3.0 6.0 0.00 0.00 0.00 47 1015.0
20260505183701 81 277 2.0 6.0 0.00 0.00 0.00 49 1015.1
20260505183505 81 315 3.0 6.0 0.00 0.00 0.00 49 1015.0
20260505183401 81 333 0.0 6.0 0.00 0.00 0.00 49 1015.1
20260505183301 81 298 4.0 6.0 0.00 0.00 0.00 49 1015.1
20260505183201 81 276 3.0 6.0 0.00 0.00 0.00 50 1015.1
20260505182601 80 345 2.0 8.0 0.00 0.00 0.00 50 1015.2
20260505182400 80 31 3.0 8.0 0.00 0.00 0.00 50 1015.2
20260505182305 80 25 2.0 8.0 0.00 0.00 0.00 50 1015.3
20260505182202 80 29 4.0 7.0 0.00 0.00 0.00 50 1015.1
20260505182102 81 294 3.0 7.0 0.00 0.00 0.00 48 1015.2
20260505181902 81 354 0.0 6.0 0.00 0.00 0.00 50 1015.2
20260505181702 80 167 2.0 6.0 0.00 0.00 0.00 49 1015.1
20260505181601 80 91 0.0 6.0 0.00 0.00 0.00 49 1015.2
20260505181505 80 239 0.0 6.0 0.00 0.00 0.00 49 1015.1
20260505181401 80 328 2.0 6.0 0.00 0.00 0.00 50 1015.1
20260505181302 80 270 1.0 6.0 0.00 0.00 0.00 50 1015.1
20260505180900 79 137 2.0 5.0 0.00 0.00 0.00 51 1015.1
20260505180801 79 29 5.0 5.0 0.00 0.00 0.00 52 1015.2
20260505180702 79 294 3.0 4.0 0.00 0.00 0.00 51 1015.2
20260505180402 81 231 2.0 4.0 0.00 0.00 0.00 49 1015.2
20260505180201 81 278 2.0 4.0 0.00 0.00 0.00 50 1015.2
20260505180008 81 33 2.0 4.0 0.00 0.00 0.00 49 1015.1
20260505175902 81 219 3.0 4.0 0.00 0.00 0.00 49 1015.2
20260505175801 81 39 1.0 4.0 0.00 0.00 0.00 49 1015.2
20260505175602 81 332 2.0 4.0 0.00 0.00 0.00 51 1015.3
20260505175505 80 264 0.0 4.0 0.00 0.00 0.00 52 1015.3
20260505175401 80 314 3.0 4.0 0.00 0.00 0.00 52 1015.2
20260505175301 80 334 2.0 4.0 0.00 0.00 0.00 51 1015.2
20260505175201 80 319 2.0 4.0 0.00 0.00 0.00 51 1015.2
20260505175101 80 307 2.0 4.0 0.00 0.00 0.00 50 1015.2
20260505175006 80 131 0.0 5.0 0.00 0.00 0.00 50 1015.2
20260505174901 80 162 3.0 5.0 0.00 0.00 0.00 49 1015.3
20260505174802 80 295 0.0 5.0 0.00 0.00 0.00 51 1015.2
20260505174701 80 331 3.0 5.0 0.00 0.00 0.00 51 1015.3
20260505174602 80 347 0.0 5.0 0.00 0.00 0.00 52 1015.3
20260505174506 80 279 2.0 5.0 0.00 0.00 0.00 50 1015.3
20260505174400 80 117 0.0 5.0 0.00 0.00 0.00 49 1015.3
20260505174202 80 324 2.0 5.0 0.00 0.00 0.00 50 1015.3
20260505174102 79 76 1.0 4.0 0.00 0.00 0.00 52 1015.3
20260505174006 79 142 2.0 4.0 0.00 0.00 0.00 51 1015.3
20260505173901 79 137 0.0 4.0 0.00 0.00 0.00 51 1015.3
20260505173801 79 150 3.0 4.0 0.00 0.00 0.00 52 1015.4
20260505173702 79 352 2.0 5.0 0.00 0.00 0.00 52 1015.3
20260505173602 79 141 0.0 7.0 0.00 0.00 0.00 52 1015.3
20260505173506 79 1 3.0 7.0 0.00 0.00 0.00 54 1015.4
20260505173401 78 245 2.0 7.0 0.00 0.00 0.00 54 1015.3
20260505173301 78 354 3.0 7.0 0.00 0.00 0.00 53 1015.4
20260505173201 78 246 1.0 7.0 0.00 0.00 0.00 52 1015.4
20260505173102 78 158 2.0 7.0 0.00 0.00 0.00 52 1015.4
20260505172901 78 10 0.0 7.0 0.00 0.00 0.00 51 1015.5
20260505172802 79 309 5.0 7.0 0.00 0.00 0.00 53 1015.4
20260505172701 79 313 0.0 6.0 0.00 0.00 0.00 54 1015.5
20260505172602 79 233 0.0 6.0 0.00 0.00 0.00 51 1015.5
20260505172402 79 130 2.0 6.0 0.00 0.00 0.00 52 1015.6
20260505172301 79 191 2.0 6.0 0.00 0.00 0.00 52 1015.7
20260505172201 79 326 0.0 6.0 0.00 0.00 0.00 51 1015.6
20260505172102 79 221 0.0 6.0 0.00 0.00 0.00 51 1015.5
20260505172006 78 125 2.0 6.0 0.00 0.00 0.00 52 1015.5
20260505171902 78 149 4.0 6.0 0.00 0.00 0.00 52 1015.5
20260505171802 78 307 0.0 6.0 0.00 0.00 0.00 53 1015.4
20260505171602 77 347 0.0 5.0 0.00 0.00 0.00 56 1015.4
20260505171506 77 326 1.0 6.0 0.00 0.00 0.00 56 1015.4
20260505171401 77 306 1.0 6.0 0.00 0.00 0.00 54 1015.4
20260505171301 77 324 1.0 6.0 0.00 0.00 0.00 54 1015.3
20260505171202 77 313 3.0 6.0 0.00 0.00 0.00 53 1015.3
20260505171006 77 305 3.0 6.0 0.00 0.00 0.00 55 1015.4
20260505170900 77 333 4.0 6.0 0.00 0.00 0.00 54 1015.3
20260505170801 77 305 3.0 6.0 0.00 0.00 0.00 54 1015.4
20260505170601 77 295 3.0 6.0 0.00 0.00 0.00 55 1015.4
20260505170505 77 334 2.0 6.0 0.00 0.00 0.00 55 1015.4
20260505170402 77 312 4.0 6.0 0.00 0.00 0.00 54 1015.4
20260505170201 78 326 3.0 6.0 0.00 0.00 0.00 53 1015.5
20260505170007 78 316 3.0 6.0 0.00 0.00 0.00 53 1015.5
20260505165700 78 290 3.0 6.0 0.00 0.00 0.00 55 1015.6
20260505165601 78 282 4.0 6.0 0.00 0.00 0.00 55 1015.6
20260505165300 76 310 3.0 5.0 0.00 0.00 0.00 54 1015.6
20260505165201 76 320 2.0 5.0 0.00 0.00 0.00 54 1015.6
20260505165101 77 293 4.0 5.0 0.00 0.00 0.00 55 1015.7
20260505165005 77 319 2.0 5.0 0.00 0.00 0.00 54 1015.7
20260505164803 77 357 2.0 4.0 0.00 0.00 0.00 54 1015.7
20260505164700 77 315 3.0 4.0 0.00 0.00 0.00 56 1015.6
20260505164504 76 352 1.0 5.0 0.00 0.00 0.00 55 1015.6
20260505164300 76 315 2.0 5.0 0.00 0.00 0.00 55 1015.6
20260505164201 76 319 2.0 5.0 0.00 0.00 0.00 55 1015.6
20260505164101 76 315 2.0 5.0 0.00 0.00 0.00 53 1015.7
20260505164006 76 322 3.0 5.0 0.00 0.00 0.00 54 1015.7
20260505163901 77 314 1.0 5.0 0.00 0.00 0.00 54 1015.8
20260505163801 77 226 2.0 5.0 0.00 0.00 0.00 54 1015.8
20260505163701 77 261 2.0 5.0 0.00 0.00 0.00 52 1015.6
20260505163600 77 51 0.0 5.0 0.00 0.00 0.00 52 1015.7
20260505163505 77 140 0.0 5.0 0.00 0.00 0.00 52 1015.7
20260505163401 77 146 2.0 5.0 0.00 0.00 0.00 54 1015.7
20260505163300 78 223 1.0 5.0 0.00 0.00 0.00 53 1015.8
20260505163159 78 232 2.0 5.0 0.00 0.00 0.00 52 1015.7
20260505163101 78 124 4.0 5.0 0.00 0.00 0.00 53 1015.8
20260505163009 78 322 3.0 4.0 0.00 0.00 0.00 53 1015.8
20260505162901 78 315 3.0 4.0 0.00 0.00 0.00 54 1015.8
20260505162700 77 331 2.0 4.0 0.00 0.00 0.00 55 1015.8
20260505162600 76 314 0.0 4.0 0.00 0.00 0.00 55 1015.8
20260505162505 76 307 2.0 4.0 0.00 0.00 0.00 54 1015.8
20260505162301 76 282 0.0 4.0 0.00 0.00 0.00 54 1015.8
20260505162201 76 298 2.0 4.0 0.00 0.00 0.00 55 1015.8
20260505162006 76 306 2.0 4.0 0.00 0.00 0.00 55 1015.9
20260505161900 76 294 0.0 4.0 0.00 0.00 0.00 53 1015.9
20260505161800 76 155 0.0 4.0 0.00 0.00 0.00 53 1015.9
20260505161700 76 298 1.0 4.0 0.00 0.00 0.00 54 1015.9
20260505161600 76 301 2.0 5.0 0.00 0.00 0.00 54 1015.9
20260505161505 76 10 3.0 5.0 0.00 0.00 0.00 55 1015.9
20260505161401 76 355 4.0 5.0 0.00 0.00 0.00 55 1015.9
20260505161300 75 153 1.0 5.0 0.00 0.00 0.00 55 1015.9
20260505161200 75 11 1.0 5.0 0.00 0.00 0.00 55 1015.9
20260505161101 75 176 3.0 6.0 0.00 0.00 0.00 57 1015.9
20260505160901 74 290 1.0 6.0 0.00 0.00 0.00 55 1015.8
20260505160600 75 335 2.0 6.0 0.00 0.00 0.00 54 1015.9
20260505160505 75 306 2.0 6.0 0.00 0.00 0.00 53 1015.9
20260505160401 75 254 4.0 6.0 0.00 0.00 0.00 54 1015.9
20260505160301 76 129 2.0 6.0 0.00 0.00 0.00 53 1016.0
20260505160200 76 55 1.0 5.0 0.00 0.00 0.00 53 1016.0
20260505153301 72 301 0.0 5.0 0.00 0.00 0.00 55 1016.3
20260505153201 72 301 0.0 5.0 0.00 0.00 0.00 55 1016.3
20260505153101 72 301 0.0 5.0 0.00 0.00 0.00 55 1016.3
20260505153004 72 301 0.0 5.0 0.00 0.00 0.00 55 1016.3
20260505152702 72 301 0.0 5.0 0.00 0.00 0.00 55 1016.3
20260505152503 72 301 0.0 5.0 0.00 0.00 0.00 55 1016.3
20260505152401 72 301 0.0 5.0 0.00 0.00 0.00 55 1016.3
20260505152304 72 301 0.0 5.0 0.00 0.00 0.00 55 1016.3
20260505152004 72 301 0.0 5.0 0.00 0.00 0.00 55 1016.3
20260505151901 72 301 0.0 5.0 0.00 0.00 0.00 55 1016.3
20260505151801 72 301 0.0 5.0 0.00 0.00 0.00 55 1016.3
20260505151700 72 301 0.0 5.0 0.00 0.00 0.00 55 1016.3
20260505151601 72 301 0.0 5.0 0.00 0.00 0.00 55 1016.3
20260505151503 72 301 0.0 5.0 0.00 0.00 0.00 55 1016.3
20260505151401 72 301 0.0 5.0 0.00 0.00 0.00 55 1016.3
20260505151301 72 301 0.0 5.0 0.00 0.00 0.00 55 1016.3
20260505151102 72 301 0.0 5.0 0.00 0.00 0.00 55 1016.3
20260505151004 72 301 0.0 5.0 0.00 0.00 0.00 55 1016.3
20260505150902 72 301 0.0 5.0 0.00 0.00 0.00 55 1016.3
20260505150701 72 301 0.0 5.0 0.00 0.00 0.00 55 1016.3
20260505150601 72 301 0.0 5.0 0.00 0.00 0.00 55 1016.3
20260505150503 72 301 0.0 5.0 0.00 0.00 0.00 55 1016.3
20260505150401 72 301 0.0 5.0 0.00 0.00 0.00 55 1016.3
20260505150301 72 301 0.0 5.0 0.00 0.00 0.00 55 1016.3
20260505150201 72 301 0.0 5.0 0.00 0.00 0.00 55 1016.3
20260505140601 69 216 0.0 4.0 0.00 0.00 0.00 58 1016.3
20260505140503 69 330 0.0 4.0 0.00 0.00 0.00 58 1016.3
20260505140401 69 105 1.0 4.0 0.00 0.00 0.00 58 1016.2
20260505140302 69 165 3.0 4.0 0.00 0.00 0.00 59 1016.2
20260505140202 69 269 2.0 3.0 0.00 0.00 0.00 59 1016.2
20260505130201 63 179 0.0 4.0 0.00 0.00 0.00 69 1015.9
20260505124901 62 204 3.0 4.0 0.00 0.00 0.00 72 1015.9
20260505124702 61 178 3.0 4.0 0.00 0.00 0.00 72 1015.9
20260505124602 61 162 4.0 4.0 0.00 0.00 0.00 73 1015.9
20260505124401 61 167 3.0 4.0 0.00 0.00 0.00 74 1015.8
20260505124302 61 174 1.0 4.0 0.00 0.00 0.00 74 1015.9
20260505124201 60 203 3.0 4.0 0.00 0.00 0.00 74 1015.9
20260505124006 60 179 3.0 5.0 0.00 0.00 0.00 74 1015.9
20260505123901 60 178 2.0 5.0 0.00 0.00 0.00 74 1015.9
20260505123801 60 200 3.0 5.0 0.00 0.00 0.00 74 1015.9
20260505123602 60 213 2.0 5.0 0.00 0.00 0.00 75 1015.9
20260505123505 60 195 2.0 5.0 0.00 0.00 0.00 75 1015.9
20260505123402 60 181 2.0 5.0 0.00 0.00 0.00 75 1015.9
20260505123303 59 207 3.0 5.0 0.00 0.00 0.00 75 1015.9
20260505123102 59 179 3.0 5.0 0.00 0.00 0.00 75 1015.9
20260505123006 59 169 4.0 5.0 0.00 0.00 0.00 75 1015.9
20260505122902 59 181 4.0 5.0 0.00 0.00 0.00 75 1015.9
20260505122801 59 174 4.0 4.0 0.00 0.00 0.00 75 1015.8
20260505122701 59 195 3.0 5.0 0.00 0.00 0.00 76 1015.8
20260505122601 59 183 4.0 5.0 0.00 0.00 0.00 77 1015.8
20260505122505 59 227 2.0 5.0 0.00 0.00 0.00 77 1015.8
20260505122302 58 181 3.0 5.0 0.00 0.00 0.00 77 1015.8
20260505122201 58 164 2.0 5.0 0.00 0.00 0.00 78 1015.8
20260505122101 58 184 3.0 5.0 0.00 0.00 0.00 78 1015.7
20260505121801 57 172 5.0 5.0 0.00 0.00 0.00 79 1015.7
20260505121701 57 187 4.0 4.0 0.00 0.00 0.00 79 1015.7
20260505121601 57 178 4.0 4.0 0.00 0.00 0.00 79 1015.7
20260505121506 57 205 3.0 4.0 0.00 0.00 0.00 79 1015.7
20260505121302 56 225 2.0 4.0 0.00 0.00 0.00 80 1015.7
20260505121201 56 198 2.0 4.0 0.00 0.00 0.00 80 1015.6
20260505121101 56 223 2.0 4.0 0.00 0.00 0.00 80 1015.7
20260505121006 56 224 2.0 4.0 0.00 0.00 0.00 80 1015.7
20260505120902 56 207 3.0 4.0 0.00 0.00 0.00 80 1015.7
20260505120701 56 204 3.0 4.0 0.00 0.00 0.00 80 1015.7
20260505120602 56 216 3.0 4.0 0.00 0.00 0.00 81 1015.7
20260505120505 56 211 2.0 4.0 0.00 0.00 0.00 81 1015.7
20260505120401 55 209 3.0 4.0 0.00 0.00 0.00 81 1015.7
20260505120301 55 216 3.0 3.0 0.00 0.00 0.00 81 1015.6
20260505120201 55 227 2.0 3.0 0.00 0.00 0.00 81 1015.7
20260505120007 55 234 3.0 4.0 0.00 0.00 0.00 81 1015.6
20260505115901 55 222 2.0 4.0 0.00 0.00 0.00 81 1015.7
20260505115801 55 223 3.0 4.0 0.00 0.00 0.00 81 1015.6
20260505115701 55 205 2.0 4.0 0.00 0.00 0.00 82 1015.6
20260505115601 54 214 3.0 4.0 0.00 0.00 0.00 82 1015.5
20260505115505 54 213 3.0 4.0 0.00 0.00 0.00 82 1015.5
20260505115400 54 209 2.0 4.0 0.00 0.00 0.00 82 1015.5
20260505115304 54 196 2.0 4.0 0.00 0.00 0.00 82 1015.4
20260505115201 54 200 2.0 4.0 0.00 0.00 0.00 82 1015.4
20260505115100 54 206 2.0 4.0 0.00 0.00 0.00 82 1015.4
20260505114800 54 229 2.0 3.0 0.00 0.00 0.00 83 1015.3
20260505114700 54 229 3.0 3.0 0.00 0.00 0.00 83 1015.3
20260505114601 54 227 3.0 3.0 0.00 0.00 0.00 82 1015.3
20260505114505 54 230 3.0 3.0 0.00 0.00 0.00 82 1015.3
20260505114401 54 222 2.0 3.0 0.00 0.00 0.00 82 1015.3
20260505114301 54 227 2.0 3.0 0.00 0.00 0.00 82 1015.3
20260505114200 54 227 1.0 3.0 0.00 0.00 0.00 82 1015.3
20260505114100 54 213 2.0 3.0 0.00 0.00 0.00 82 1015.4
20260505114005 53 206 2.0 3.0 0.00 0.00 0.00 82 1015.4
20260505113900 53 173 2.0 3.0 0.00 0.00 0.00 83 1015.2
20260505113659 53 246 1.0 3.0 0.00 0.00 0.00 83 1015.2
20260505113600 53 258 2.0 3.0 0.00 0.00 0.00 83 1015.2
20260505113505 53 232 3.0 3.0 0.00 0.00 0.00 83 1015.2
20260505113400 53 231 2.0 3.0 0.00 0.00 0.00 83 1015.4
20260505113301 53 230 2.0 3.0 0.00 0.00 0.00 83 1015.4
20260505113202 53 218 0.0 3.0 0.00 0.00 0.00 83 1015.4
20260505113101 53 218 0.0 3.0 0.00 0.00 0.00 83 1015.3
20260505113006 53 204 0.0 3.0 0.00 0.00 0.00 83 1015.3
20260505112902 53 224 1.0 3.0 0.00 0.00 0.00 84 1015.2
20260505112800 52 222 0.0 3.0 0.00 0.00 0.00 83 1015.2
20260505112659 52 218 0.0 3.0 0.00 0.00 0.00 83 1015.1
20260505112601 52 186 2.0 3.0 0.00 0.00 0.00 84 1015.2
20260505112505 52 195 1.0 3.0 0.00 0.00 0.00 84 1015.2
20260505112401 52 195 1.0 3.0 0.00 0.00 0.00 84 1015.0
20260505112301 52 209 0.0 3.0 0.00 0.00 0.00 84 1015.1
20260505112200 52 215 2.0 3.0 0.00 0.00 0.00 84 1015.2
20260505112101 52 209 0.0 3.0 0.00 0.00 0.00 84 1015.0
20260505112005 52 183 1.0 3.0 0.00 0.00 0.00 84 1015.0
20260505111859 52 221 0.0 3.0 0.00 0.00 0.00 84 1015.0
20260505111800 52 197 1.0 3.0 0.00 0.00 0.00 84 1014.9
20260505111600 52 213 1.0 3.0 0.00 0.00 0.00 84 1015.0
20260505111505 52 215 2.0 3.0 0.00 0.00 0.00 84 1015.0
20260505111400 52 211 2.0 3.0 0.00 0.00 0.00 84 1015.1
20260505111301 52 208 2.0 3.0 0.00 0.00 0.00 84 1015.1
20260505111200 52 179 0.0 2.0 0.00 0.00 0.00 84 1015.1
20260505111101 52 166 0.0 1.0 0.00 0.00 0.00 84 1015.2
20260505111005 52 238 0.0 1.0 0.00 0.00 0.00 84 1015.2
20260505110901 52 159 0.0 2.0 0.00 0.00 0.00 84 1015.2
20260505110800 52 155 1.0 2.0 0.00 0.00 0.00 84 1015.0
20260505110601 52 218 0.0 2.0 0.00 0.00 0.00 84 1015.1
20260505110505 52 218 0.0 2.0 0.00 0.00 0.00 84 1015.1
20260505110400 52 218 0.0 2.0 0.00 0.00 0.00 84 1015.2
20260505110301 52 218 0.0 2.0 0.00 0.00 0.00 84 1015.1
20260505102101 51 212 4.0 5.0 0.00 0.00 0.00 86 1014.8
20260505102013 51 166 3.0 5.0 0.00 0.00 0.00 86 1014.8
20260505101901 51 179 3.0 5.0 0.00 0.00 0.00 86 1014.8
20260505101801 51 159 0.0 4.0 0.00 0.00 0.00 86 1014.8
20260505101701 51 217 1.0 4.0 0.00 0.00 0.00 86 1015.0
20260505101600 51 154 0.0 4.0 0.00 0.00 0.00 86 1014.9
20260505101505 51 162 2.0 4.0 0.00 0.00 0.00 86 1014.9
20260505101401 51 176 3.0 4.0 0.00 0.00 0.00 86 1014.7
20260505101302 51 189 3.0 4.0 0.00 0.00 0.00 86 1014.7
20260505101201 51 181 2.0 4.0 0.00 0.00 0.00 86 1014.6
20260505101103 51 167 3.0 3.0 0.00 0.00 0.00 86 1014.7
20260505101006 51 208 0.0 3.0 0.00 0.00 0.00 86 1014.7
20260505100902 51 201 1.0 3.0 0.00 0.00 0.00 86 1014.7
20260505100801 51 221 0.0 3.0 0.00 0.00 0.00 86 1014.7
20260505100702 51 162 0.0 3.0 0.00 0.00 0.00 86 1014.6
20260505100505 51 181 2.0 3.0 0.00 0.00 0.00 86 1014.7
20260505100302 51 190 1.0 3.0 0.00 0.00 0.00 85 1014.5
20260505100201 51 205 0.0 3.0 0.00 0.00 0.00 85 1014.5
20260505100006 51 207 2.0 3.0 0.00 0.00 0.00 85 1014.5
20260505095900 51 173 0.0 3.0 0.00 0.00 0.00 85 1014.5
20260505095801 51 190 0.0 2.0 0.00 0.00 0.00 85 1014.4
20260505095700 51 203 1.0 2.0 0.00 0.00 0.00 85 1014.4
20260505095600 51 215 0.0 2.0 0.00 0.00 0.00 85 1014.4
20260505095505 51 210 0.0 2.0 0.00 0.00 0.00 85 1014.4
20260505095400 51 215 0.0 2.0 0.00 0.00 0.00 85 1014.3
20260505095300 51 201 0.0 2.0 0.00 0.00 0.00 85 1014.3
20260505095202 51 225 1.0 2.0 0.00 0.00 0.00 85 1014.3
20260505095101 51 209 0.0 2.0 0.00 0.00 0.00 85 1014.3
20260505095005 51 184 0.0 2.0 0.00 0.00 0.00 85 1014.3
20260505094900 51 205 1.0 2.0 0.00 0.00 0.00 85 1014.4
20260505094800 51 210 0.0 2.0 0.00 0.00 0.00 85 1014.3
20260505094700 51 212 1.0 2.0 0.00 0.00 0.00 85 1014.4
20260505094600 51 206 1.0 2.0 0.00 0.00 0.00 85 1014.4
20260505094505 51 213 0.0 2.0 0.00 0.00 0.00 85 1014.4
20260505094400 51 206 0.0 3.0 0.00 0.00 0.00 85 1014.3
20260505094200 51 205 0.0 3.0 0.00 0.00 0.00 85 1014.3
20260505094005 52 199 2.0 3.0 0.00 0.00 0.00 85 1014.3
20260505093801 52 210 0.0 3.0 0.00 0.00 0.00 85 1014.4
20260505093700 52 210 0.0 3.0 0.00 0.00 0.00 85 1014.3
20260505093601 52 206 1.0 3.0 0.00 0.00 0.00 85 1014.3
20260505093505 52 185 3.0 3.0 0.00 0.00 0.00 84 1014.3
20260505093400 52 174 1.0 3.0 0.00 0.00 0.00 84 1014.3
20260505093301 52 210 0.0 3.0 0.00 0.00 0.00 85 1014.3
20260505093007 52 234 0.0 3.0 0.00 0.00 0.00 85 1014.3
20260505092901 52 264 1.0 3.0 0.00 0.00 0.00 85 1014.3
20260505092800 52 233 0.0 3.0 0.00 0.00 0.00 85 1014.4
20260505092701 52 218 1.0 3.0 0.00 0.00 0.00 85 1014.3
20260505092600 52 250 2.0 2.0 0.00 0.00 0.00 84 1014.3
20260505092505 52 237 2.0 2.0 0.00 0.00 0.00 84 1014.3
20260505092401 52 250 2.0 2.0 0.00 0.00 0.00 84 1014.1
20260505092201 52 227 2.0 2.0 0.00 0.00 0.00 84 1014.1
20260505092101 52 220 0.0 2.0 0.00 0.00 0.00 84 1014.1
20260505092005 52 223 0.0 2.0 0.00 0.00 0.00 84 1014.1
20260505091901 52 230 0.0 2.0 0.00 0.00 0.00 84 1014.0
20260505091600 52 217 0.0 2.0 0.00 0.00 0.00 84 1014.0
20260505091505 52 209 0.0 2.0 0.00 0.00 0.00 84 1014.0
20260505091300 52 212 0.0 2.0 0.00 0.00 0.00 84 1013.9
20260505091200 52 215 0.0 2.0 0.00 0.00 0.00 84 1013.9
20260505091100 52 229 0.0 2.0 0.00 0.00 0.00 84 1013.9
20260505091005 52 229 0.0 3.0 0.00 0.00 0.00 84 1013.9
20260505090801 52 229 0.0 3.0 0.00 0.00 0.00 84 1013.8
20260505090701 52 234 0.0 3.0 0.00 0.00 0.00 84 1013.8
20260505090505 52 212 0.0 3.0 0.00 0.00 0.00 84 1013.9
20260505090359 52 212 0.0 3.0 0.00 0.00 0.00 84 1013.8
20260505090300 52 198 0.0 3.0 0.00 0.00 0.00 83 1013.8
20260505090200 52 178 1.0 3.0 0.00 0.00 0.00 83 1013.8
20260505090006 52 221 2.0 2.0 0.00 0.00 0.00 83 1013.8
20260505085900 52 229 1.0 2.0 0.00 0.00 0.00 83 1013.9
20260505085800 52 255 0.0 2.0 0.00 0.00 0.00 84 1013.9
20260505085700 52 260 0.0 2.0 0.00 0.00 0.00 84 1013.9
20260505085600 52 241 0.0 2.0 0.00 0.00 0.00 83 1013.9
20260505085505 52 243 1.0 2.0 0.00 0.00 0.00 83 1013.9
20260505085401 52 232 0.0 2.0 0.00 0.00 0.00 83 1013.8
20260505085300 52 232 0.0 2.0 0.00 0.00 0.00 83 1013.8
20260505085201 52 232 0.0 2.0 0.00 0.00 0.00 83 1013.8
20260505085101 52 230 0.0 2.0 0.00 0.00 0.00 83 1013.8
20260505085005 52 231 0.0 2.0 0.00 0.00 0.00 83 1013.8
20260505084901 52 216 0.0 2.0 0.00 0.00 0.00 83 1013.8
20260505084800 53 212 0.0 2.0 0.00 0.00 0.00 83 1013.7
20260505084701 53 227 1.0 2.0 0.00 0.00 0.00 83 1013.7
20260505084601 53 229 0.0 2.0 0.00 0.00 0.00 83 1013.7
20260505084401 53 228 0.0 2.0 0.00 0.00 0.00 83 1013.6
20260505084201 53 231 0.0 2.0 0.00 0.00 0.00 82 1013.7
20260505084101 53 219 0.0 2.0 0.00 0.00 0.00 82 1013.6
20260505084005 53 219 0.0 2.0 0.00 0.00 0.00 82 1013.7
20260505083901 53 232 1.0 2.0 0.00 0.00 0.00 82 1013.7
20260505083800 53 214 0.0 2.0 0.00 0.00 0.00 82 1013.7
20260505083700 53 228 1.0 3.0 0.00 0.00 0.00 82 1013.7
20260505083600 53 219 0.0 3.0 0.00 0.00 0.00 82 1013.6
20260505083401 53 209 0.0 3.0 0.00 0.00 0.00 82 1013.7
20260505083200 53 236 2.0 3.0 0.00 0.00 0.00 82 1013.7
20260505083101 53 241 2.0 3.0 0.00 0.00 0.00 81 1013.6
20260505083006 53 235 2.0 3.0 0.00 0.00 0.00 82 1013.6
20260505082901 53 228 0.0 3.0 0.00 0.00 0.00 81 1013.7
20260505082801 53 224 3.0 3.0 0.00 0.00 0.00 81 1013.6
20260505082700 53 218 1.0 3.0 0.00 0.00 0.00 81 1013.6
20260505082600 53 228 2.0 3.0 0.00 0.00 0.00 81 1013.6
20260505082505 53 219 3.0 3.0 0.00 0.00 0.00 81 1013.6
20260505082401 53 212 2.0 3.0 0.00 0.00 0.00 81 1013.6
20260505082304 53 222 2.0 3.0 0.00 0.00 0.00 81 1013.7
20260505082200 54 225 2.0 3.0 0.00 0.00 0.00 81 1013.7
20260505082101 54 218 3.0 3.0 0.00 0.00 0.00 81 1013.6
20260505082005 54 225 1.0 3.0 0.00 0.00 0.00 81 1013.6
20260505081901 54 228 2.0 3.0 0.00 0.00 0.00 81 1013.7
20260505081800 54 220 2.0 3.0 0.00 0.00 0.00 80 1013.6
20260505081700 54 220 2.0 3.0 0.00 0.00 0.00 80 1013.5
20260505081505 54 213 2.0 3.0 0.00 0.00 0.00 81 1013.5
20260505081401 54 232 2.0 3.0 0.00 0.00 0.00 81 1013.6
20260505081300 54 232 2.0 3.0 0.00 0.00 0.00 80 1013.6
20260505081201 54 238 2.0 3.0 0.00 0.00 0.00 80 1013.7
20260505081100 54 238 2.0 3.0 0.00 0.00 0.00 80 1013.7
20260505081003 54 227 2.0 3.0 0.00 0.00 0.00 80 1013.7
20260505080900 54 227 2.0 3.0 0.00 0.00 0.00 80 1013.7
20260505080801 54 238 2.0 3.0 0.00 0.00 0.00 80 1013.7
20260505080559 54 239 2.0 3.0 0.00 0.00 0.00 80 1013.6
20260505080504 54 228 2.0 3.0 0.00 0.00 0.00 80 1013.6
20260505080400 54 227 3.0 3.0 0.00 0.00 0.00 80 1013.5
20260505080300 54 229 2.0 3.0 0.00 0.00 0.00 80 1013.5
20260505080200 54 237 1.0 3.0 0.00 0.00 0.00 80 1013.5
20260505080100 54 228 1.0 3.0 0.00 0.00 0.00 80 1013.6
20260505080005 54 226 0.0 3.0 0.00 0.00 0.00 79 1013.6
20260505075900 54 231 2.0 3.0 0.00 0.00 0.00 79 1013.6
20260505075800 54 232 2.0 3.0 0.00 0.00 0.00 79 1013.6
20260505075600 55 235 3.0 3.0 0.00 0.00 0.00 79 1013.5
20260505075505 55 252 2.0 3.0 0.00 0.00 0.00 79 1013.5
20260505075304 55 233 2.0 3.0 0.00 0.00 0.00 79 1013.4
20260505075200 55 237 2.0 3.0 0.00 0.00 0.00 79 1013.4
20260505075100 55 224 0.0 3.0 0.00 0.00 0.00 79 1013.3
20260505075006 55 220 2.0 3.0 0.00 0.00 0.00 79 1013.3
20260505074900 55 227 2.0 3.0 0.00 0.00 0.00 79 1013.4
20260505074700 55 243 0.0 3.0 0.00 0.00 0.00 78 1013.4
20260505074600 55 241 0.0 3.0 0.00 0.00 0.00 78 1013.4
20260505074505 55 233 2.0 3.0 0.00 0.00 0.00 78 1013.4
20260505074400 55 231 2.0 3.0 0.00 0.00 0.00 78 1013.4
20260505074300 55 224 3.0 3.0 0.00 0.00 0.00 78 1013.3
20260505074200 55 210 2.0 3.0 0.00 0.00 0.00 78 1013.4
20260505074005 55 223 2.0 3.0 0.00 0.00 0.00 78 1013.3
20260505073900 55 213 2.0 3.0 0.00 0.00 0.00 78 1013.5
20260505073759 55 224 2.0 3.0 0.00 0.00 0.00 78 1013.5
20260505073700 55 223 2.0 3.0 0.00 0.00 0.00 78 1013.5
20260505073600 56 233 1.0 3.0 0.00 0.00 0.00 78 1013.6
20260505073505 56 235 2.0 3.0 0.00 0.00 0.00 78 1013.6
20260505073401 56 223 1.0 3.0 0.00 0.00 0.00 78 1013.5
20260505073200 56 220 2.0 3.0 0.00 0.00 0.00 78 1013.6
20260505073100 55 226 2.0 3.0 0.00 0.00 0.00 78 1013.5
20260505073005 56 229 2.0 3.0 0.00 0.00 0.00 78 1013.5
20260505072900 55 223 2.0 3.0 0.00 0.00 0.00 78 1013.7
20260505072800 55 228 2.0 3.0 0.00 0.00 0.00 78 1013.7
20260505072700 56 257 2.0 3.0 0.00 0.00 0.00 78 1013.7
20260505072600 56 264 2.0 3.0 0.00 0.00 0.00 78 1013.8
20260505072400 56 259 2.0 3.0 0.00 0.00 0.00 78 1013.7
20260505072301 56 276 3.0 3.0 0.00 0.00 0.00 78 1013.7
20260505072201 56 255 3.0 3.0 0.00 0.00 0.00 78 1013.6
20260505072005 56 231 2.0 3.0 0.00 0.00 0.00 78 1013.6
20260505071701 56 250 2.0 3.0 0.00 0.00 0.00 77 1013.6
20260505071504 55 243 2.0 3.0 0.00 0.00 0.00 78 1013.6
20260505071301 55 250 0.0 3.0 0.00 0.00 0.00 78 1013.7
20260505071100 55 251 3.0 3.0 0.00 0.00 0.00 77 1013.7
20260505071006 55 240 2.0 3.0 0.00 0.00 0.00 77 1013.7
20260505070800 56 257 2.0 3.0 0.00 0.00 0.00 77 1013.8
20260505070700 56 252 2.0 3.0 0.00 0.00 0.00 77 1013.7
20260505070600 56 253 2.0 3.0 0.00 0.00 0.00 77 1013.8
20260505070400 56 269 1.0 3.0 0.00 0.00 0.00 77 1013.7
20260505070300 56 253 1.0 3.0 0.00 0.00 0.00 77 1013.8
20260505070101 56 258 0.0 3.0 0.00 0.00 0.00 77 1013.9
20260505070007 56 255 3.0 3.0 0.00 0.00 0.00 77 1013.9
20260505065901 56 263 2.0 3.0 0.00 0.00 0.00 77 1013.9
20260505065800 56 255 2.0 3.0 0.00 0.00 0.00 77 1013.9
20260505065701 56 240 2.0 3.0 0.00 0.00 0.00 77 1013.9
20260505065600 56 250 3.0 3.0 0.00 0.00 0.00 77 1013.8
20260505065504 56 246 2.0 3.0 0.00 0.00 0.00 77 1013.9
20260505065401 56 255 2.0 3.0 0.00 0.00 0.00 77 1013.9
20260505065101 56 251 2.0 3.0 0.00 0.00 0.00 77 1013.9
20260505064900 56 258 2.0 3.0 0.00 0.00 0.00 77 1014.0
20260505064800 56 239 2.0 3.0 0.00 0.00 0.00 77 1014.0
20260505064700 56 235 2.0 3.0 0.00 0.00 0.00 77 1014.0
20260505064600 56 228 2.0 3.0 0.00 0.00 0.00 77 1014.0
20260505064504 56 248 2.0 3.0 0.00 0.00 0.00 77 1014.0
20260505064400 56 225 2.0 3.0 0.00 0.00 0.00 77 1014.1
20260505064300 56 244 3.0 3.0 0.00 0.00 0.00 76 1014.0
20260505064200 56 239 1.0 3.0 0.00 0.00 0.00 76 1014.0
20260505064006 56 246 2.0 3.0 0.00 0.00 0.00 77 1014.1
20260505063901 56 227 2.0 3.0 0.00 0.00 0.00 76 1014.2
20260505063801 56 221 2.0 3.0 0.00 0.00 0.00 76 1014.2
20260505063700 56 217 2.0 3.0 0.00 0.00 0.00 77 1014.2
20260505063600 56 203 3.0 3.0 0.00 0.00 0.00 77 1014.2
20260505063505 56 212 2.0 3.0 0.00 0.00 0.00 77 1014.2
20260505063400 56 218 3.0 3.0 0.00 0.00 0.00 77 1014.3
20260505063200 56 259 3.0 3.0 0.00 0.00 0.00 76 1014.4
20260505063100 56 248 3.0 3.0 0.00 0.00 0.00 76 1014.4
20260505063005 56 234 2.0 3.0 0.00 0.00 0.00 76 1014.4
20260505062900 56 253 2.0 3.0 0.00 0.00 0.00 76 1014.3
20260505062800 56 257 2.0 3.0 0.00 0.00 0.00 76 1014.3
20260505062700 56 237 2.0 3.0 0.00 0.00 0.00 76 1014.3
20260505062600 56 259 2.0 3.0 0.00 0.00 0.00 76 1014.3
20260505062505 56 242 2.0 3.0 0.00 0.00 0.00 76 1014.3
20260505062400 56 248 3.0 3.0 0.00 0.00 0.00 76 1014.3
20260505062300 56 251 2.0 3.0 0.00 0.00 0.00 76 1014.2
20260505062200 56 244 3.0 3.0 0.00 0.00 0.00 75 1014.2
20260505062102 56 238 2.0 3.0 0.00 0.00 0.00 75 1014.3
20260505062007 56 248 2.0 3.0 0.00 0.00 0.00 75 1014.3
20260505061900 56 239 3.0 3.0 0.00 0.00 0.00 75 1014.3
20260505061800 56 248 3.0 3.0 0.00 0.00 0.00 75 1014.2
20260505061701 56 236 3.0 3.0 0.00 0.00 0.00 75 1014.2
20260505061600 56 229 3.0 3.0 0.00 0.00 0.00 75 1014.2
20260505061505 56 236 3.0 3.0 0.00 0.00 0.00 75 1014.2
20260505061400 56 232 2.0 3.0 0.00 0.00 0.00 74 1014.3
20260505061201 56 228 2.0 3.0 0.00 0.00 0.00 74 1014.2
20260505061101 56 227 2.0 3.0 0.00 0.00 0.00 74 1014.3
20260505060900 57 226 2.0 3.0 0.00 0.00 0.00 74 1014.2
20260505060800 56 233 2.0 3.0 0.00 0.00 0.00 74 1014.3
20260505060659 56 224 2.0 3.0 0.00 0.00 0.00 74 1014.3
20260505060601 56 229 3.0 3.0 0.00 0.00 0.00 74 1014.3
20260505060400 56 238 3.0 3.0 0.00 0.00 0.00 74 1014.3
20260505060300 57 239 2.0 3.0 0.00 0.00 0.00 74 1014.3
20260505060101 57 236 2.0 3.0 0.00 0.00 0.00 74 1014.4
20260505060007 57 227 2.0 3.0 0.00 0.00 0.00 74 1014.4
20260505055903 57 229 2.0 3.0 0.00 0.00 0.00 74 1014.5
20260505055804 57 232 2.0 3.0 0.00 0.00 0.00 74 1014.5
20260505055703 57 228 2.0 3.0 0.00 0.00 0.00 74 1014.4
20260505055603 57 232 3.0 3.0 0.00 0.00 0.00 74 1014.5
20260505055506 57 230 2.0 3.0 0.00 0.00 0.00 73 1014.5
20260505055404 57 240 2.0 3.0 0.00 0.00 0.00 73 1014.4
20260505055303 57 235 2.0 3.0 0.00 0.00 0.00 73 1014.4
20260505055203 57 248 2.0 3.0 0.00 0.00 0.00 73 1014.4
20260505055006 57 214 0.0 3.0 0.00 0.00 0.00 72 1014.4
20260505054904 57 212 0.0 3.0 0.00 0.00 0.00 72 1014.4
20260505054803 57 218 1.0 3.0 0.00 0.00 0.00 73 1014.5
20260505054703 57 217 2.0 3.0 0.00 0.00 0.00 73 1014.5
20260505054604 57 227 2.0 3.0 0.00 0.00 0.00 73 1014.4
20260505054506 57 218 2.0 3.0 0.00 0.00 0.00 73 1014.5
20260505054302 57 224 2.0 3.0 0.00 0.00 0.00 73 1014.5
20260505054103 57 232 2.0 3.0 0.00 0.00 0.00 72 1014.5
20260505053904 58 240 2.0 3.0 0.00 0.00 0.00 72 1014.6
20260505053704 58 253 1.0 3.0 0.00 0.00 0.00 72 1014.6
20260505053603 58 244 3.0 3.0 0.00 0.00 0.00 72 1014.6
20260505053506 58 251 1.0 3.0 0.00 0.00 0.00 71 1014.6
20260505053403 58 241 2.0 3.0 0.00 0.00 0.00 72 1014.6
20260505053303 58 233 2.0 3.0 0.00 0.00 0.00 71 1014.7
20260505053204 58 238 2.0 3.0 0.00 0.00 0.00 71 1014.6
20260505053103 58 253 2.0 3.0 0.00 0.00 0.00 71 1014.6
20260505052904 58 237 2.0 3.0 0.00 0.00 0.00 71 1014.6
20260505052804 58 228 2.0 3.0 0.00 0.00 0.00 71 1014.6
20260505052703 58 222 2.0 3.0 0.00 0.00 0.00 70 1014.6
20260505052506 58 220 1.0 3.0 0.00 0.00 0.00 71 1014.7
20260505052304 58 228 3.0 3.0 0.00 0.00 0.00 71 1014.6
20260505052203 58 220 3.0 3.0 0.00 0.00 0.00 71 1014.6
20260505052103 58 231 3.0 3.0 0.00 0.00 0.00 70 1014.6
20260505052005 58 238 2.0 3.0 0.00 0.00 0.00 70 1014.7
20260505051903 58 234 3.0 3.0 0.00 0.00 0.00 70 1014.7
20260505051804 58 223 3.0 3.0 0.00 0.00 0.00 71 1014.6
20260505051703 58 239 3.0 3.0 0.00 0.00 0.00 71 1014.7
20260505051603 59 253 2.0 3.0 0.00 0.00 0.00 71 1014.6